Orange, MA

2:34 AM EDT on August 22, 2017 (GMT -0400)
Orange Municipal

Weather History for KORE - November, 2014

Change the Weather History Date:

Tuesday, November 25, 2014

  Actual Average Record
Temperature  
Mean Temperature 45 °F -  
Max Temperature 60 °F 42 °F 62 °F (2004)
Min Temperature 30 °F 24 °F 7 °F (2000)
Degree Days  
Heating Degree Days 20    
Moisture  
Dew Point 38 °F    
Average Humidity 69    
Maximum Humidity 97    
Minimum Humidity 37    
Precipitation  
Precipitation 0.00 in - - ()
Sea Level Pressure  
Sea Level Pressure 29.89 in    
Wind  
Wind Speed 6 mph (SW)    
Max Wind Speed 12 mph    
Max Gust Speed 20 mph    
Visibility 10 miles    
Events      
Averages and records for this station are not official NWS values.
T = Trace of Precipitation, MM = Missing Value Source: NWS Daily Summary

Daily Weather History Graph

Daily Weather History Graph

Search for Another Location

Airport or City:

Trip Planner

Search our weather history database for the weather conditions in past years. The results will help you decide how hot, cold, wet, or windy it might be!

Date:

Astronomy

Nov. 25, 2014 Rise Set
Actual Time 6:52 AM EST 4:19 PM EST
Civil Twilight 6:21 AM EST 4:50 PM EST
Nautical Twilight 5:46 AM EST 5:25 PM EST
Astronomical Twilight 5:13 AM EST 5:58 PM EST
Moon 9:34 AM EST (11/25) 7:42 PM EST (11/25)
Length of Visible Light 10h 29m
Length of Day
9h 26m
Waxing Crescent, 12% of the Moon is Illuminated
Nov 25
Waxing Crescent
Nov 29
First Quarter
Dec 6
Full
Dec 14
Last Quarter
Dec 21
New

Hourly Weather History & Observations

Time (EST) Temp. Dew Point Humidity Pressure Visibility Wind Dir Wind Speed Gust Speed Precip Events Conditions
12:52 AM 60.1 °F 54.0 °F 80% 29.70 in 10.0 mi SW 8.1 mph 19.6 mph N/A   Clear
1:52 AM 60.1 °F 54.0 °F 80% 29.72 in 10.0 mi SW 9.2 mph - N/A   Clear
2:52 AM 59.0 °F 53.1 °F 81% 29.71 in 10.0 mi SSW 10.4 mph - N/A   Clear
3:52 AM 57.0 °F 53.1 °F 87% 29.73 in 10.0 mi South 5.8 mph - N/A   Clear
4:52 AM 52.0 °F 51.1 °F 97% 29.74 in 10.0 mi Calm Calm - N/A   Clear
5:52 AM 55.0 °F 48.9 °F 80% 29.77 in 10.0 mi South 8.1 mph - N/A   Clear
6:52 AM 55.0 °F 46.9 °F 74% 29.80 in 10.0 mi SSW 9.2 mph - N/A   Clear
7:52 AM 55.9 °F 45.0 °F 67% 29.83 in 10.0 mi SW 8.1 mph - N/A   Clear
8:52 AM 57.0 °F 44.1 °F 62% 29.85 in 10.0 mi SW 9.2 mph - N/A   Clear
9:52 AM 57.0 °F 39.9 °F 53% 29.87 in 10.0 mi SW 9.2 mph - N/A   Clear
10:52 AM 57.0 °F 35.1 °F 44% 29.88 in 10.0 mi WSW 11.5 mph - N/A   Clear
11:52 AM 57.0 °F 33.1 °F 40% 29.89 in 10.0 mi SW 5.8 mph - N/A   Clear
12:52 PM 57.0 °F 30.9 °F 37% 29.88 in 10.0 mi SW 11.5 mph - N/A   Clear
1:52 PM 55.9 °F 33.1 °F 42% 29.88 in 10.0 mi WSW 6.9 mph - N/A   Clear
2:52 PM 55.0 °F 30.9 °F 40% 29.89 in 10.0 mi WNW 4.6 mph - N/A   Clear
3:52 PM 53.1 °F 28.9 °F 40% 29.92 in 10.0 mi West 3.5 mph - N/A   Clear
4:52 PM 50.0 °F 28.0 °F 43% 29.96 in 10.0 mi West 5.8 mph - N/A   Clear
5:52 PM 43.0 °F 28.9 °F 58% 30.00 in 10.0 mi Calm Calm - N/A   Clear
6:52 PM 37.0 °F 32.0 °F 82% 30.01 in 10.0 mi Calm Calm - N/A   Clear
7:52 PM 34.0 °F 30.0 °F 85% 30.05 in 10.0 mi Calm Calm - N/A   Clear
8:52 PM 33.1 °F 30.0 °F 89% 30.06 in 10.0 mi Calm Calm - N/A   Clear
9:52 PM 32.0 °F 30.0 °F 92% 30.08 in 10.0 mi Calm Calm - N/A   Clear
10:52 PM 30.9 °F 30.0 °F 96% 30.11 in 10.0 mi Calm Calm - N/A   Clear
11:52 PM 30.9 °F 30.0 °F 96% 30.12 in 10.0 mi Calm Calm - N/A   Clear